Regional Weather Roundup
Issued by NWS Sioux Falls, SD

Home | Current Version | Previous Version | Graphics & Text | Print | Product List | Glossary On
Versions: 1 2 3 4 5 6 7 8 9 10 11 12 13 14 15 16 17 18 19 20 21 22 23 24 25 26 27 28 29 30 31 32 33 34 35 36 37 38 39 40 41 42 43 44 45 46 47 48 49 50
000
ASUS43 KFSD 270910
RWRFSD

WEATHER ROUNDUP FOR SE SOUTH DAKOTA/SW MINNESOTA/NW IOWA
NATIONAL WEATHER SERVICE SIOUX FALLS SD
400 AM CDT SAT MAY 27 2017

NOTE: "FAIR" INDICATES FEW OR NO CLOUDS BELOW 12,000 FEET WITH NO
SIGNIFICANT WEATHER AND OR OBSTRUCTIONS TO VISIBILITY.


SDZ038>040-050-052>070-271000-
SOUTHEAST SOUTH DAKOTA

CITY           SKY/WX    TMP DP  RH WIND       PRES   REMARKS
BROOKINGS      CLOUDY    52  49  89 N3        29.91S
CHAMBERLAIN    CLOUDY    57  48  72 S5        29.91S
HURON          CLOUDY    56  47  71 CALM      29.88F
MADISON        CLOUDY    54  54 100 CALM      29.92R
MITCHELL       CLOUDY    56  51  84 NW5       29.91R
SIOUX FALLS    CLOUDY    52  47  83 CALM      29.90S
WINNER         CLOUDY    56  50  80 S7        29.91F
YANKTON        CLOUDY    55  52  89 CALM      29.90S
$$

MNZ071-072-080-081-089-090-097-098-271000-
SOUTHWEST MINNESOTA

CITY           SKY/WX    TMP DP  RH WIND       PRES   REMARKS
FAIRMONT       CLEAR     54  46  74 NW5       29.90F
JACKSON        CLEAR     52  43  71 CALM      29.91S
LUVERNE        CLOUDY    48  43  81 CALM      29.91S
MARSHALL       CLOUDY    53  48  83 CALM      29.90S
MONTEVIDEO     CLOUDY    54  45  71 W3        29.89S
PIPESTONE      CLOUDY    55  41  58 CALM      29.90S
REDWOOD FALLS  CLOUDY    54  45  71 CALM      29.88F
TRACY          CLOUDY    56  48  75 SW5       29.90S
WINDOM         CLEAR     52  45  76 CALM      29.90F
WORTHINGTON    PTCLDY    51  43  74 CALM      29.91F
$$

IAZ001>003-012>014-020>022-031-032-NEZ013-014-SDZ071-271000-
NORTHWEST IOWA

CITY           SKY/WX    TMP DP  RH WIND       PRES   REMARKS
CHEROKEE       PTCLDY    48  46  93 CALM      29.91S
DENISON        CLOUDY    54  46  76 E3        29.92S
ESTHERVILLE    CLEAR     51  46  83 NW8       29.90S
LE MARS        MOCLDY    52  48  87 CALM      29.90F
ORANGE CITY    CLOUDY    61  43  51 NE5       29.90F
SHELDON        CLOUDY    50  43  76 CALM      29.89F
SIOUX CITY     CLOUDY    54  48  80 E3        29.89F
SPENCER        CLEAR     49  46  90 CALM      29.91S
STORM LAKE     PTCLDY    57  41  54 N6        29.91F
$$

ABBREVIATIONS USED IN REMARKS
   TC - TEMPERATURE IN CELSIUS
  WCI - WIND CHILL INDEX
   HX - HEAT INDEX
  VSB - VISIBILITY




USA.gov is the U.S. government's official web portal to all federal, state and local government web resources and services.